{"data":{"norad_id":69926,"epoch":"2026-09-20T04:01:33.848832Z","epoch_age_seconds":46507,"freshness":"FRESH","line1":"1 69926U 26156BK  26263.16775288  .00001866  00000+0  18681-3 0  9992","line2":"2 69926  97.7494 162.4805 0006693 281.1750  78.8716 14.92597615 11163","mean_motion":14.92597615,"eccentricity":0.0006693,"inclination_deg":97.7494,"raan_deg":162.4805,"arg_perigee_deg":281.175,"mean_anomaly_deg":78.8716,"bstar":0.00018681,"rev_number":1116,"period_min":96.476102167696,"perigee_km":585.17586200802,"apogee_km":594.50319538933,"semimajor_km":6967.9765286987,"source":"CELESTRAK","updated_at":"2026-09-20T09:00:25.205605Z"}}